�������l�o���
Date,Time,MP-1(��Sv/h),MP-2(��Sv/h),MP-3(��Sv/h),MP-4(��Sv/h),MP-5(��Sv/h),MP-6(��Sv/h),MP-7(��Sv/h),MP-8(��Sv/h),����,����(m/s),���J
2019/02/19,00:00,0.780,1.158,0.797,1.488,1.072,0.445,0.789,0.748,�k�k��,3.9,��
2019/02/19,00:10,0.781,1.158,0.799,1.487,1.073,0.443,0.791,0.747,�k��,3.7,��
2019/02/19,00:20,0.781,1.157,0.798,1.489,1.073,0.444,0.789,0.748,�k��,3.1,��
2019/02/19,00:30,0.781,1.160,0.798,1.488,1.070,0.444,0.788,0.747,�k��,3.5,��
2019/02/19,00:40,0.782,1.157,0.798,1.486,1.071,0.445,0.789,0.747,�k��,2.0,��
2019/02/19,00:50,0.780,1.157,0.798,1.489,1.072,0.442,0.792,0.749,�k��,1.1,��
2019/02/19,01:00,0.779,1.157,0.798,1.490,1.073,0.443,0.790,0.747,�k�k��,1.2,��
2019/02/19,01:10,0.781,1.158,0.799,1.488,1.073,0.443,0.791,0.750,�k,0.6,��
2019/02/19,01:20,0.781,1.157,0.798,1.488,1.073,0.443,0.790,0.748,��,0.6,��
2019/02/19,01:30,0.780,1.156,0.797,1.488,1.071,0.444,0.790,0.747,��,0.6,��
2019/02/19,01:40,0.780,1.157,0.799,1.486,1.071,0.442,0.791,0.748,�k�k��,1.1,��
2019/02/19,01:50,0.781,1.155,0.797,1.492,1.072,0.444,0.789,0.748,�k�k��,1.1,��
2019/02/19,02:00,0.781,1.156,0.798,1.487,1.070,0.443,0.790,0.750,�k�k��,0.6,��
2019/02/19,02:10,0.782,1.155,0.796,1.487,1.072,0.444,0.788,0.747,�k��,0.6,��
2019/02/19,02:20,0.782,1.155,0.798,1.487,1.072,0.444,0.788,0.747,���k��,0.9,��
2019/02/19,02:30,0.781,1.157,0.798,1.486,1.070,0.442,0.789,0.748,�k��,0.9,��
2019/02/19,02:40,0.781,1.156,0.799,1.488,1.072,0.445,0.788,0.749,�k��,0.9,��
2019/02/19,02:50,0.780,1.158,0.800,1.485,1.071,0.444,0.789,0.747,�k��,1.2,��
2019/02/19,03:00,0.781,1.157,0.800,1.488,1.071,0.443,0.790,0.749,���k��,0.9,��
2019/02/19,03:10,0.780,1.157,0.800,1.490,1.070,0.443,0.790,0.748,��,1.2,��
2019/02/19,03:20,0.781,1.156,0.798,1.488,1.072,0.444,0.790,0.747,��,1.9,��
2019/02/19,03:30,0.780,1.157,0.800,1.486,1.072,0.445,0.790,0.750,���쐼,2.0,��
2019/02/19,03:40,0.782,1.158,0.798,1.486,1.072,0.444,0.791,0.749,�쐼,1.9,��
2019/02/19,03:50,0.780,1.157,0.799,1.488,1.073,0.445,0.791,0.748,���쐼,1.2,��
2019/02/19,04:00,0.782,1.156,0.801,1.487,1.071,0.444,0.790,0.748,���쐼,1.2,��
2019/02/19,04:10,0.780,1.154,0.797,1.489,1.072,0.443,0.793,0.749,���쐼,1.2,��
2019/02/19,04:20,0.778,1.157,0.796,1.490,1.074,0.444,0.788,0.750,���쐼,1.2,��
2019/02/19,04:30,0.783,1.155,0.798,1.488,1.073,0.444,0.790,0.749,�쐼,1.2,��
2019/02/19,04:40,0.781,1.157,0.797,1.487,1.069,0.445,0.791,0.749,�쐼,1.2,��
2019/02/19,04:50,0.781,1.155,0.797,1.488,1.072,0.445,0.789,0.747,���쐼,1.2,��
2019/02/19,05:00,0.779,1.156,0.798,1.488,1.071,0.444,0.791,0.749,��쐼,1.5,��
2019/02/19,05:10,0.781,1.157,0.797,1.487,1.071,0.444,0.789,0.750,��쐼,1.5,��
2019/02/19,05:20,0.781,1.154,0.799,1.488,1.072,0.445,0.790,0.750,��쐼,0.9,��
2019/02/19,05:30,0.781,1.156,0.797,1.489,1.073,0.444,0.789,0.749,���쐼,0.9,��
2019/02/19,05:40,0.778,1.154,0.800,1.488,1.071,0.444,0.789,0.748,��쐼,1.2,��
2019/02/19,05:50,0.781,1.156,0.800,1.489,1.071,0.443,0.789,0.748,-,CALM,��
2019/02/19,06:00,0.779,1.156,0.799,1.488,1.071,0.443,0.789,0.748,�k�k��,0.6,��
2019/02/19,06:10,0.781,1.156,0.799,1.490,1.072,0.443,0.790,0.749,-,CALM,��
2019/02/19,06:20,0.779,1.158,0.798,1.490,1.072,0.445,0.791,0.748,�k,0.6,��
2019/02/19,06:30,0.781,1.155,0.797,1.488,1.071,0.444,0.791,0.749,-,CALM,��
2019/02/19,06:40,0.780,1.156,0.801,1.488,1.071,0.445,0.791,0.748,-,CALM,��
2019/02/19,06:50,0.780,1.158,0.800,1.488,1.072,0.445,0.791,0.748,�k��,0.9,��
2019/02/19,07:00,0.781,1.156,0.798,1.488,1.073,0.444,0.790,0.748,�k,0.6,��
2019/02/19,07:10,0.783,1.155,0.799,1.490,1.072,0.445,0.791,0.748,�k��,1.2,��
2019/02/19,07:20,0.783,1.159,0.797,1.487,1.071,0.444,0.793,0.747,���k��,1.8,��
2019/02/19,07:30,0.780,1.157,0.798,1.490,1.071,0.444,0.792,0.749,���k��,1.9,��
2019/02/19,07:40,0.781,1.155,0.799,1.485,1.072,0.445,0.793,0.749,���k��,1.2,��
2019/02/19,07:50,0.783,1.156,0.798,1.488,1.073,0.444,0.793,0.748,��,1.4,��
2019/02/19,08:00,0.784,1.156,0.800,1.488,1.072,0.445,0.791,0.749,��,0.9,��
2019/02/19,08:10,0.784,1.155,0.800,1.488,1.074,0.443,0.793,0.749,��,0.6,��
2019/02/19,08:20,0.782,1.155,0.803,1.490,1.073,0.445,0.791,0.750,���k��,1.2,��
2019/02/19,08:30,0.783,1.153,0.799,1.488,1.072,0.445,0.788,0.752,�k��,0.9,��
2019/02/19,08:40,0.784,1.155,0.800,1.489,1.074,0.444,0.784,0.751,-,CALM,��
2019/02/19,08:50,0.783,1.154,0.797,1.490,1.074,0.445,0.787,0.749,�k,0.8,��
2019/02/19,09:00,0.783,1.158,0.799,1.488,1.070,0.445,0.785,0.751,�k��,1.1,��
2019/02/19,09:10,0.783,1.158,0.798,1.491,1.074,0.444,0.783,0.751,���k��,2.0,��
2019/02/19,09:20,0.783,1.155,0.801,1.491,1.072,0.445,0.786,0.750,���k��,1.5,��
2019/02/19,09:30,0.784,1.154,0.798,1.490,1.074,0.445,-,0.750,���k��,1.5,��
2019/02/19,09:40,0.785,1.156,0.799,1.490,1.075,0.445,-,0.750,���k��,1.4,��
2019/02/19,09:50,0.785,1.154,0.801,1.488,1.073,0.445,-,0.751,���k��,1.4,��
2019/02/19,10:00,0.783,1.155,0.798,1.490,1.075,0.443,-,0.751,���k��,0.9,��
2019/02/19,10:10,0.777,1.154,0.798,1.489,1.074,0.440,0.780,0.751,�k�k��,0.6,��
2019/02/19,10:20,0.780,1.150,0.799,1.487,1.075,0.445,0.781,0.751,-,CALM,��
2019/02/19,10:30,0.781,1.157,0.800,1.490,1.076,0.445,0.783,0.750,-,CALM,��
2019/02/19,10:40,0.783,1.155,0.801,1.489,1.077,0.446,0.783,0.750,��,0.9,��
2019/02/19,10:50,0.780,1.155,0.799,1.490,1.073,0.445,0.783,0.750,���쓌,1.2,��
2019/02/19,11:00,0.780,1.154,0.799,1.492,1.075,0.446,0.785,0.752,�k��,1.2,��
2019/02/19,11:10,0.788,1.147,0.799,1.487,1.074,0.445,0.786,0.752,�k��,1.2,��
2019/02/19,11:20,0.788,1.141,0.799,1.489,1.073,0.443,0.786,0.751,�k��,1.2,��
2019/02/19,11:30,0.787,1.146,0.801,1.490,1.073,0.445,0.788,0.750,���k��,1.5,��
2019/02/19,11:40,0.787,1.146,0.802,1.490,1.072,0.445,0.787,0.751,�k��,1.7,��
2019/02/19,11:50,0.787,1.151,0.802,1.489,1.073,0.444,0.787,0.750,�k��,2.0,��
2019/02/19,12:00,0.788,1.156,0.800,1.488,1.071,0.444,0.787,0.751,�k��,2.0,��
2019/02/19,12:10,0.786,1.155,0.800,1.489,1.071,0.446,0.787,0.749,�k��,2.2,��
2019/02/19,12:20,0.787,1.156,0.800,1.492,1.074,0.445,0.786,0.750,�k�k��,2.6,��
2019/02/19,12:30,0.788,1.156,0.802,1.489,1.071,0.445,0.787,0.751,�k�k��,2.8,��
2019/02/19,12:40,0.787,1.150,0.802,1.493,1.071,0.446,0.786,0.750,�k,2.6,��
2019/02/19,12:50,0.788,1.153,0.800,1.490,1.074,0.446,0.786,0.751,�k�k��,2.6,��
2019/02/19,13:00,0.789,1.158,0.801,1.489,1.075,0.449,0.787,0.752,�k�k��,2.6,��
2019/02/19,13:10,0.787,1.156,0.800,1.489,1.074,0.446,0.787,0.752,�k�k��,2.2,��
2019/02/19,13:20,0.787,1.153,0.799,1.491,1.076,0.446,0.788,0.750,�k�k��,2.0,��
2019/02/19,13:30,0.789,1.151,0.800,1.491,1.077,0.446,0.787,0.752,�k,2.0,��
2019/02/19,13:40,0.788,1.154,0.802,1.490,1.073,0.447,0.787,0.750,�k�k��,1.5,��
2019/02/19,13:50,0.789,1.153,0.802,1.492,1.076,0.446,0.786,0.751,�k�k��,1.9,��
2019/02/19,14:00,0.789,1.154,0.801,1.491,1.076,0.446,0.786,0.751,��,1.4,��
2019/02/19,14:10,0.790,1.151,0.800,1.491,1.075,0.446,0.787,0.752,���k��,1.5,��
2019/02/19,14:20,0.790,1.153,0.799,1.492,1.073,0.445,0.787,0.751,���k��,1.2,��
2019/02/19,14:30,0.790,1.156,0.800,1.492,1.075,0.446,0.787,0.751,���쓌,1.1,�L
2019/02/19,14:40,0.789,1.155,0.801,1.490,1.075,0.446,0.785,0.750,���쓌,1.2,�L
2019/02/19,14:50,0.790,1.156,0.801,1.491,1.074,0.448,0.791,0.751,�쓌,1.2,�L
2019/02/19,15:00,0.789,1.157,0.802,1.493,1.074,0.447,0.788,0.749,���쓌,0.9,�L
2019/02/19,15:10,0.789,1.153,0.801,1.492,1.074,0.447,0.789,0.752,��,1.2,�L
2019/02/19,15:20,0.788,1.156,0.801,1.490,1.076,0.448,0.787,0.751,���k��,1.2,�L
2019/02/19,15:30,0.789,1.156,0.803,1.489,1.076,0.445,0.786,0.753,�k��,1.5,�L
2019/02/19,15:40,0.791,1.156,0.800,1.493,1.075,0.441,-,0.751,�k��,1.1,�L
2019/02/19,15:50,0.790,1.158,0.802,1.490,1.073,0.441,-,0.751,��,0.9,�L
2019/02/19,16:00,0.790,1.159,0.802,1.491,1.075,0.444,-,0.751,��쓌,0.9,�L
2019/02/19,16:10,0.790,1.155,0.803,1.489,1.073,0.448,-,0.752,���쓌,0.9,�L
2019/02/19,16:20,0.791,1.155,0.800,1.491,1.071,0.449,0.784,0.751,���쓌,1.5,�L
2019/02/19,16:30,0.790,1.151,0.799,1.487,1.072,0.448,0.783,0.751,���쓌,2.0,�L
2019/02/19,16:40,0.787,1.149,0.800,1.486,1.070,0.449,0.786,0.750,�쓌,1.7,�L
2019/02/19,16:50,0.785,1.149,0.801,1.487,1.067,0.449,0.790,0.750,�쓌,1.2,�L
2019/02/19,17:00,0.785,1.146,0.799,1.486,1.068,0.447,0.790,0.749,-,CALM,�L
2019/02/19,17:10,0.785,1.146,0.800,1.484,1.067,0.447,0.790,0.750,�쓌,1.4,�L
2019/02/19,17:20,0.785,1.144,0.798,1.486,1.066,0.448,0.792,0.749,��쓌,0.9,�L
2019/02/19,17:30,0.783,1.143,0.798,1.482,1.063,0.447,0.792,0.748,��,1.5,�L
2019/02/19,17:40,0.784,1.142,0.799,1.484,1.061,0.448,0.791,0.748,�쐼,1.5,�L
2019/02/19,17:50,0.783,1.140,0.796,1.480,1.060,0.448,0.792,0.749,��쐼,3.6,�L
2019/02/19,18:00,0.781,1.138,0.795,1.479,1.061,0.448,0.791,0.747,��쐼,4.5,�L
2019/02/19,18:10,0.780,1.138,0.795,1.481,1.060,0.446,0.790,0.747,��,4.6,�L
2019/02/19,18:20,0.779,1.138,0.794,1.479,1.059,0.447,0.791,0.746,��쐼,6.2,�L
2019/02/19,18:30,0.779,1.134,0.795,1.478,1.058,0.446,0.792,0.746,��쐼,6.0,�L
2019/02/19,18:40,0.778,1.131,0.794,1.479,1.058,0.446,0.789,0.747,��쐼,4.1,�L
2019/02/19,18:50,0.780,1.133,0.794,1.477,1.057,0.446,0.792,0.749,��,5.1,�L
2019/02/19,19:00,0.777,1.135,0.793,1.478,1.058,0.445,0.791,0.746,��,7.0,�L
2019/02/19,19:10,0.778,1.133,0.792,1.476,1.058,0.447,0.791,0.748,��쓌,6.3,�L
2019/02/19,19:20,0.778,1.131,0.794,1.478,1.057,0.445,0.789,0.746,��쓌,6.7,�L
2019/02/19,19:30,0.778,1.134,0.795,1.477,1.057,0.447,0.792,0.749,��쓌,5.7,�L
2019/02/19,19:40,0.777,1.131,0.793,1.476,1.055,0.446,0.791,0.746,��,5.6,�L
2019/02/19,19:50,0.778,1.132,0.793,1.477,1.057,0.445,0.790,0.746,��,6.6,�L
2019/02/19,20:00,0.777,1.130,0.792,1.475,1.055,0.445,0.790,0.747,��쓌,8.1,��
2019/02/19,20:10,0.778,1.132,0.793,1.476,1.052,0.447,0.789,0.746,��,7.8,��
2019/02/19,20:20,0.777,1.131,0.791,1.475,1.055,0.446,0.792,0.746,��쓌,8.5,�L
2019/02/19,20:30,0.778,1.128,0.790,1.473,1.055,0.446,0.790,0.747,��,6.2,�L
2019/02/19,20:40,0.777,1.132,0.793,1.474,1.054,0.446,0.790,0.745,��,6.1,�L
2019/02/19,20:50,0.778,1.131,0.791,1.474,1.053,0.444,0.789,0.749,��,6.1,�L
2019/02/19,21:00,0.775,1.132,0.792,1.472,1.055,0.445,0.790,0.746,��쓌,6.4,�L
2019/02/19,21:10,0.777,1.131,0.789,1.473,1.054,0.445,0.788,0.746,��,6.6,��
2019/02/19,21:20,0.775,1.128,0.791,1.473,1.055,0.444,0.789,0.747,��,4.9,��
2019/02/19,21:30,0.777,1.129,0.791,1.474,1.054,0.445,0.789,0.746,��쓌,4.8,��
2019/02/19,21:40,0.777,1.129,0.789,1.473,1.053,0.445,0.790,0.747,��,2.9,��
2019/02/19,21:50,0.776,1.130,0.790,1.474,1.052,0.444,0.789,0.746,���k��,1.5,��
2019/02/19,22:00,0.776,1.131,0.793,1.474,1.052,0.444,0.790,0.748,�k�k��,3.3,��
2019/02/19,22:10,0.776,1.129,0.790,1.476,1.053,0.444,0.790,0.746,�k,3.9,��
2019/02/19,22:20,0.777,1.130,0.789,1.478,1.053,0.444,0.788,0.746,�k,3.0,�L
2019/02/19,22:30,0.780,1.128,0.792,1.473,1.056,0.443,0.790,0.746,�k��,2.2,��
2019/02/19,22:40,0.777,1.131,0.789,1.474,1.054,0.444,0.790,0.746,�k��,1.7,��
2019/02/19,22:50,0.777,1.131,0.793,1.476,1.056,0.444,0.789,0.747,�k,3.0,�L
2019/02/19,23:00,0.776,1.129,0.792,1.476,1.056,0.445,0.789,0.747,�k,4.1,�L
2019/02/19,23:10,0.777,1.130,0.791,1.475,1.054,0.445,0.789,0.747,�k,5.0,�L
2019/02/19,23:20,0.778,1.130,0.791,1.473,1.054,0.445,0.790,0.746,�k,5.2,�L
2019/02/19,23:30,0.776,1.131,0.792,1.473,1.052,0.445,0.789,0.744,�k,5.3,�L
2019/02/19,23:40,0.777,1.132,0.791,1.474,1.053,0.445,0.790,0.745,�k,3.5,��
2019/02/19,23:50,0.775,1.131,0.792,1.475,1.055,0.445,0.789,0.747,�k,4.1,�L
